[[{"header":{"parameterUnit":"m.s-1","parameterCategory":1,"la1":30.2991,"la2":30.254,"lo1":-89.0895,"lo2":-89.0444,"dy":0.0017,"dx":0.0017,"nx":28,"ny":28,"refTime":"2024-04-27T03:00:00:Z","depth":0,"parameterNumber":2,"parameterNumberName":"U-component_of_WINDS"},"data":[0,0,0,0,0,0,0,0,0,0,0,0,0,0,0,0,0,0,0,0,0,0,0,0,0,0,0,0,0,0,0,0,0,0,0,0,0,0,0,0,0,0,0,0,0,0,0,0,0,0,0,0,0,0,0,0,0,0,-7.4902,-7.4903,0,-7.4963,-7.4964,-7.4964,-7.4934,-7.4932,-7.4931,-7.4929,-7.4987,-7.499,-7.4993,0,0,0,0,0,0,0,0,0,0,0,0,0,-7.4757,-7.476,-7.4902,-7.4903,-7.4904,-7.4963,-7.4964,-7.4965,-7.4934,-7.4932,-7.493,-7.4928,-7.4986,-7.499,-7.4994,0,0,0,0,0,0,0,0,0,0,0,0,0,-7.4819,-7.4761,-7.4902,-7.4896,-7.4896,-7.4963,-7.4964,-7.4965,-7.4934,-7.4932,-7.493,-7.4927,-7.4985,-7.499,-7.4994,-7.507,0,0,-7.5008,-7.501,0,0,0,0,0,0,0,0,-7.4815,-7.4824,-7.4896,-7.4896,-7.4896,-7.4938,-7.4934,-7.5,-7.4935,-7.492,-7.4929,-7.4926,-7.4973,-7.4978,-7.4995,-7.5072,-7.5075,-7.5008,-7.5011,-7.5013,-7.5014,0,0,0,0,0,0,0,-7.4811,-7.4821,-7.4926,-7.4897,-7.4897,-7.4889,-7.4895,-7.4946,-7.4959,-7.4921,-7.4919,-7.4927,-7.4972,-7.499,-7.4996,-7.5076,-7.5008,-7.5012,-7.5015,-7.5017,-7.5219,-7.5222,0,0,0,0,0,0,-7.4808,-7.4818,-7.4924,-7.4928,-7.4849,-7.4893,-7.49,-7.4927,-7.4958,-7.496,-7.4928,-7.4925,-7.4984,-7.4991,-7.4998,-7.5087,-7.5013,-7.5017,-7.502,-7.5216,-7.522,-7.5223,0,0,0,0,0,0,-7.4805,-7.4817,-7.4922,-7.4873,-7.4885,-7.4899,-7.4929,-7.493,-7.4947,-7.4964,-7.4966,-7.4945,-7.4982,-7.4991,-7.5052,-7.5089,-7.5019,-7.5023,-7.5213,-7.5217,-7.5221,-7.5268,0,0,0,0,0,0,-7.4801,-7.4816,-7.4845,-7.4873,-7.4888,-7.4976,-7.4931,-7.4933,-7.4956,-7.4952,-7.4979,-7.4982,-7.4981,-7.5046,-7.5057,-7.5094,-7.5027,-7.521,-7.5215,-7.522,-7.5263,-7.5273,-7.5281,0,0,0,0,0,-7.4795,-7.4855,-7.4847,-7.486,-7.4925,-7.4978,-7.4986,-7.4985,-7.4959,-7.4988,-7.4999,-7.4981,-7.5084,-7.5052,-7.5065,-7.5103,-7.5208,-7.5214,-7.5219,-7.5259,-7.5271,-7.5281,0,0,0,0,0,0,-7.4829,-7.4859,-7.485,-7.4921,-7.4947,-7.4973,-7.5009,-7.4998,-7.5031,-7.5026,-7.5022,-7.5029,-7.5092,-7.5105,-7.5068,-7.5179,-7.5142,-7.515,-7.5167,-7.5179,-7.5188,-7.5182,-7.5031,0,0,0,0,0,-7.4845,-7.4887,-7.491,-7.497,-7.4985,-7.4995,-7.5018,-7.5016,-7.5042,-7.5053,-7.5068,-7.5094,-7.5132,-7.5157,-7.5193,-7.5266,-7.5271,-7.5299,-7.5309,-7.5316,-7.5322,-7.5361,-7.5374,-7.5242,-7.5242,-7.5242,0,0,-7.4877,-7.4899,-7.4925,-7.4978,-7.4998,-7.504,-7.5004,-7.505,-7.5081,-7.5059,-7.5117,-7.513,-7.5159,-7.5226,-7.5257,-7.5238,-7.5361,-7.5324,-7.5329,-7.5331,-7.5369,-7.5381,-7.5392,-7.5246,-7.5245,-7.5245,0,0,-7.4957,-7.4979,-7.5031,-7.5053,-7.5085,-7.5093,-7.5105,-7.5134,-7.5141,-7.5201,-7.5185,-7.5222,-7.5289,-7.5309,-7.5329,-7.5421,-7.5405,-7.5434,-7.548,-7.5518,-7.5528,-7.5537,-7.5568,-7.558,-7.5441,-7.5441,-7.5441,0,-7.4993,-7.5057,-7.5059,-7.5107,-7.513,-7.5116,-7.5168,-7.5189,-7.5231,-7.5247,-7.5227,-7.531,-7.5329,-7.54,-7.5423,-7.5441,-7.5454,-7.5428,-7.5527,-7.5536,-7.5544,-7.5574,-7.5586,-7.5444,-7.5443,-7.5443,-7.5443,0,-7.5098,-7.5144,-7.5182,-7.5224,-7.5253,-7.5302,-7.5311,-7.534,-7.5336,-7.5345,-7.5406,-7.5429,-7.5469,-7.5487,-7.5483,-7.5559,-7.5546,-7.5527,-7.5489,-7.556,-7.5587,-7.5599,-7.5448,-7.5447,-7.5446,-7.5445,0,0,-7.5196,-7.5243,-7.5256,-7.5275,-7.5312,-7.5346,-7.5396,-7.5437,-7.5461,-7.5492,-7.5532,-7.5591,-7.5574,-7.5596,-7.5595,-7.5629,-7.5699,-7.5605,-7.5606,-7.562,-7.5782,-7.5794,-7.5807,-7.5691,-7.5693,-7.5695,-7.5779,0,-7.5277,-7.5365,-7.537,-7.5449,-7.549,-7.5479,-7.5522,-7.5549,-7.556,-7.5596,-7.5608,-7.5648,-7.5624,-7.5637,-7.5671,-7.5683,-7.5731,-7.5678,-7.5726,-7.5728,-7.5715,-7.5821,-7.5833,-7.5911,-7.579,-7.5792,-7.5793,0,-7.5381,-7.5417,-7.5501,-7.5532,-7.555,-7.5589,-7.5627,-7.5663,-7.5693,-7.5699,-7.5726,-7.5721,-7.5771,-7.5736,-7.5805,-7.5768,-7.5789,-7.5799,-7.5802,-7.5803,-7.5762,-7.5822,-7.5936,-7.5946,-7.581,-7.5809,-7.5808,0,-7.5441,-7.5511,-7.557,-7.5587,-7.5626,-7.5654,-7.5671,-7.5699,-7.5724,-7.5759,-7.5775,-7.5815,-7.5835,-7.5866,-7.5872,-7.5846,-7.5941,-7.5905,-7.5945,-7.5944,-7.5961,-7.5959,-7.6077,-7.5981,-7.5981,-7.5981,-7.5981,0,-7.5529,-7.558,-7.5597,-7.5633,-7.569,-7.5696,-7.5752,-7.5768,-7.5794,-7.5832,-7.5826,-7.5861,-7.5869,-7.5906,-7.5911,-7.5967,-7.5977,-7.5982,-7.5982,-7.598,-7.5979,-7.5991,-7.5984,-7.5984,-7.5983,-7.5983,-7.5982,0,-7.5603,-7.5618,-7.5681,-7.5714,-7.5723,-7.5764,-7.5791,-7.5826,-7.5838,-7.5886,-7.5898,-7.5916,-7.596,-7.597,-7.6022,-7.6026,-7.6091,-7.6087,-7.608,-7.6079,-7.6117,-7.6112,-7.6242,-7.6259,-7.6156,-7.6157,-7.6158,0,-7.5656,-7.5695,-7.5733,-7.5759,-7.5778,-7.582,-7.5846,-7.5855,-7.5882,-7.5922,-7.5951,-7.5995,-7.6029,-7.61,-7.6117,-7.6157,-7.6153,-7.6196,-7.6158,-7.6156,-7.615,-7.6146,-7.6149,-7.6201,-7.6203,-7.6204,-7.6204,0,-7.5747,-7.5753,-7.5792,-7.5834,-7.5866,-7.5899,-7.593,-7.5952,-7.5965,-7.5996,-7.6042,-7.6069,-7.6124,-7.6166,-7.6207,-7.6224,-7.6216,-7.6217,-7.6228,-7.6224,-7.6218,-7.6219,-7.6096,-7.6213,-7.6212,-7.6211,-7.6211,-7.621,-7.5811,-7.5845,-7.5878,-7.5921,-7.5947,-7.5977,-7.6011,-7.6028,-7.6067,-7.6112,-7.6116,-7.6165,-7.6196,-7.625,-7.627,-7.6308,-7.6295,-7.6311,-7.6314,-7.6317,-7.6319,-7.6215,-7.6316,-7.6316,-7.6316,-7.6316,-7.6315,0,-7.5899,-7.5921,-7.5961,-7.6006,-7.6041,-7.6034,-7.6069,-7.6098,-7.6141,-7.6172,-7.6208,-7.626,-7.6303,-7.6325,-7.6367,-7.6393,-7.6391,-7.6404,-7.64,-7.6404,-7.633,-7.6315,-7.6405,-7.6405,-7.6405,-7.6405,-7.6405,-7.6405,-7.5949,-7.6007,-7.6017,-7.6087,-7.6108,-7.6157,-7.6178,-7.6206,-7.623,-7.629,-7.6325,-7.6341,-7.6368,-7.6412,-7.6451,-7.6456,-7.6471,-7.6485,-7.6488,-7.6418,-7.6409,-7.64,-7.6386,-7.6489,-7.6489,-7.6558,-7.6559,-7.6559]},{"header":{"parameterUnit":"m.s-1","parameterCategory":1,"la1":30.2991,"la2":30.254,"lo1":-89.0895,"lo2":-89.0444,"dy":0.0017,"dx":0.0017,"nx":28,"ny":28,"refTime":"2024-04-27T03:00:00:Z","depth":0,"parameterNumber":3,"parameterNumberName":"V-component_of_WINDS"},"data":[0,0,0,0,0,0,0,0,0,0,0,0,0,0,0,0,0,0,0,0,0,0,0,0,0,0,0,0,0,0,0,0,0,0,0,0,0,0,0,0,0,0,0,0,0,0,0,0,0,0,0,0,0,0,0,0,0,0,4.252,4.252,0,4.255,4.2551,4.2551,4.2611,4.2612,4.2613,4.2614,4.2639,4.2639,4.2638,0,0,0,0,0,0,0,0,0,0,0,0,0,4.2509,4.2509,4.252,4.252,4.2521,4.255,4.2551,4.2551,4.2611,4.2612,4.2614,4.2615,4.2639,4.2639,4.2638,0,0,0,0,0,0,0,0,0,0,0,0,0,4.2524,4.2509,4.252,4.2554,4.2557,4.255,4.2551,4.2551,4.261,4.2612,4.2614,4.2616,4.2639,4.2639,4.2638,4.2598,0,0,4.2636,4.2636,0,0,0,0,0,0,0,0,4.2523,4.2524,4.2549,4.2552,4.2556,4.2579,4.2556,4.2567,4.261,4.259,4.2614,4.2617,4.2617,4.2618,4.262,4.2599,4.26,4.2636,4.2635,4.2635,4.2635,0,0,0,0,0,0,0,4.2522,4.2523,4.2532,4.2549,4.2553,4.2567,4.2571,4.2558,4.2593,4.2592,4.2596,4.26,4.2619,4.262,4.2621,4.26,4.2636,4.2635,4.2635,4.2635,4.2551,4.255,0,0,0,0,0,0,4.2517,4.2522,4.2531,4.2533,4.2544,4.2565,4.257,4.2569,4.2593,4.2599,4.2598,4.2602,4.2621,4.2622,4.2622,4.2579,4.2635,4.2634,4.2634,4.2553,4.2551,4.2549,0,0,0,0,0,0,4.2516,4.2517,4.253,4.2529,4.2531,4.2564,4.2563,4.2569,4.257,4.2598,4.2604,4.2593,4.2622,4.2623,4.2605,4.258,4.2634,4.2634,4.2555,4.2552,4.255,4.2491,0,0,0,0,0,0,4.2515,4.2516,4.2502,4.2528,4.2531,4.2513,4.2561,4.2568,4.257,4.2576,4.2595,4.26,4.2624,4.2605,4.2604,4.258,4.2633,4.2557,4.2554,4.2551,4.2495,4.2486,4.2479,0,0,0,0,0,4.2515,4.2482,4.2501,4.2502,4.2514,4.2511,4.2513,4.2543,4.2568,4.2553,4.2572,4.2599,4.2583,4.2603,4.2602,4.2578,4.2559,4.2555,4.2551,4.2498,4.2488,4.2479,0,0,0,0,0,0,4.2449,4.2486,4.2507,4.2482,4.2494,4.2521,4.2504,4.253,4.2533,4.2538,4.2573,4.2577,4.2554,4.2564,4.2585,4.2542,4.2576,4.2571,4.2536,4.2526,4.2519,4.2517,4.2632,0,0,0,0,0,4.2432,4.2428,4.246,4.2434,4.244,4.2471,4.247,4.2493,4.2505,4.2509,4.2526,4.2535,4.2533,4.253,4.2529,4.2497,4.2502,4.248,4.2472,4.2465,4.2461,4.2447,4.2438,4.2536,4.2536,4.2536,0,0,4.2396,4.2416,4.2411,4.2422,4.2433,4.2428,4.2474,4.2465,4.2461,4.2507,4.2492,4.2505,4.2518,4.2493,4.2483,4.25,4.2435,4.246,4.2454,4.2454,4.2442,4.2432,4.2424,4.2533,4.2533,4.2534,0,0,4.2328,4.2342,4.2324,4.2336,4.2354,4.2375,4.2371,4.2396,4.2407,4.2393,4.2429,4.2423,4.2417,4.2426,4.2429,4.2368,4.2394,4.2367,4.2325,4.2311,4.2303,4.2296,4.2276,4.2268,4.2362,4.2362,4.2362,0,4.2281,4.2275,4.2311,4.2301,4.2306,4.2351,4.2333,4.2341,4.2356,4.2358,4.2378,4.2375,4.2386,4.2365,4.2351,4.2351,4.2348,4.2364,4.2301,4.2295,4.2289,4.227,4.2262,4.2359,4.2359,4.236,4.236,0,4.2217,4.2212,4.2195,4.2213,4.2215,4.2201,4.2234,4.2232,4.2255,4.2274,4.226,4.2276,4.2281,4.2277,4.2298,4.226,4.2271,4.2295,4.233,4.2276,4.2259,4.2252,4.2354,4.2355,4.2356,4.2357,0,0,4.2106,4.2147,4.214,4.215,4.2174,4.2171,4.2159,4.2166,4.2165,4.2174,4.2165,4.2161,4.2186,4.219,4.2212,4.22,4.2153,4.2227,4.2227,4.2213,4.2113,4.2095,4.2086,4.217,4.2169,4.2168,4.2113,0,4.2045,4.2029,4.2062,4.2038,4.2035,4.2079,4.2069,4.2083,4.2101,4.21,4.2119,4.2117,4.2148,4.2152,4.2141,4.216,4.2133,4.2165,4.2162,4.2161,4.2158,4.2077,4.2057,4.2004,4.2106,4.2105,4.2104,0,4.197,4.198,4.1956,4.1985,4.1985,4.1976,4.1986,4.1985,4.2002,4.2016,4.2022,4.205,4.204,4.2074,4.2061,4.2082,4.2083,4.2092,4.2091,4.2092,4.2129,4.2076,4.1987,4.198,4.2093,4.2094,4.2095,0,4.1894,4.1901,4.1889,4.1895,4.1928,4.1921,4.1934,4.1952,4.1955,4.1964,4.1966,4.1972,4.1976,4.1979,4.2008,4.203,4.1992,4.2028,4.2003,4.2003,4.1993,4.1993,4.1904,4.1992,4.1993,4.1993,4.1993,0,4.1822,4.1806,4.1856,4.1848,4.1832,4.187,4.1852,4.1869,4.1886,4.1882,4.1919,4.1914,4.1952,4.1951,4.1973,4.196,4.1961,4.1972,4.1978,4.1969,4.1968,4.197,4.1975,4.1991,4.1991,4.1991,4.1992,0,4.1734,4.1767,4.1757,4.179,4.1798,4.1784,4.1812,4.1806,4.1828,4.1823,4.1823,4.1857,4.1858,4.1887,4.1893,4.1909,4.1887,4.1899,4.1882,4.1886,4.186,4.1863,4.177,4.176,4.1853,4.1853,4.1852,0,4.1687,4.1676,4.1709,4.1711,4.1723,4.1724,4.1728,4.1766,4.1768,4.1788,4.178,4.1785,4.1791,4.179,4.1814,4.182,4.1833,4.18,4.1834,4.1826,4.1834,4.1835,4.1835,4.1793,4.1792,4.1791,4.179,0,4.1599,4.1617,4.1623,4.1635,4.164,4.165,4.1663,4.1661,4.1702,4.1704,4.1707,4.1712,4.1721,4.1725,4.1736,4.1748,4.1776,4.178,4.1774,4.1765,4.1756,4.1762,4.1863,4.1781,4.1782,4.1783,4.1783,4.1784,4.1531,4.1525,4.1548,4.1554,4.1569,4.158,4.1577,4.16,4.1604,4.1616,4.1637,4.1638,4.1656,4.1674,4.1684,4.1684,4.1701,4.1693,4.1691,4.1689,4.1684,4.1756,4.1686,4.1686,4.1686,4.1687,4.1687,0,4.1447,4.1465,4.147,4.1489,4.1494,4.1522,4.1538,4.154,4.1541,4.1557,4.1563,4.1568,4.1573,4.1599,4.1607,4.1602,4.1615,4.1603,4.1604,4.1606,4.1668,4.1673,4.1592,4.1592,4.1592,4.1592,4.1592,4.1592,4.1404,4.1396,4.1416,4.1415,4.1433,4.1436,4.1443,4.1454,4.1468,4.1472,4.1478,4.1495,4.1515,4.1525,4.1532,4.1539,4.154,4.1524,4.1535,4.1593,4.1602,4.161,4.1615,4.1524,4.1524,4.1474,4.1474,4.1473]}]]